Seattle, WA

8:40 PM PDT on May 21, 2018 (GMT -0700)
Seattle-Tacoma International

Weather History for KSEA - July, 2013

Change the Weather History Date:

Saturday, July 6, 2013

  Actual Average Record
Temperature  
Mean Temperature 68 °F 64 °F  
Max Temperature 79 °F 74 °F 94 °F (1960)
Min Temperature 56 °F 55 °F 45 °F (1949)
Degree Days  
Heating Degree Days 0 2  
Month to date heating degree days 1 14  
Since 1 June heating degree days 50 158  
Since 1 July heating degree days 1 14  
Cooling Degree Days 3 2  
Month to date cooling degree days 29 8  
Year to date cooling degree days 91 35  
Since 1 June cooling degree days 78 29  
Growing Degree Days 17 (Base 50)    
Moisture  
Dew Point 53 °F    
Average Humidity 64    
Maximum Humidity 93    
Minimum Humidity 35    
Precipitation  
Precipitation 0.00 in 0.03 in 0.44 in (1948)
Month to date precipitation 0.00 0.18  
Year to date precipitation 18.05 19.19  
Sea Level Pressure  
Sea Level Pressure 29.98 in    
Wind  
Wind Speed 5 mph (West)    
Max Wind Speed 13 mph    
Max Gust Speed 16 mph    
Visibility 8 miles    
Events Fog    
T = Trace of Precipitation, MM = Missing Value Source: NWS Daily Summary

Daily Weather History Graph

Daily Weather History Graph

Search for Another Location

Airport or City:

Astronomy

Jul. 06, 2013 Rise Set
Actual Time 5:19 AM PDT 9:07 PM PDT
Civil Twilight 4:40 AM PDT 9:47 PM PDT
Nautical Twilight 3:46 AM PDT 10:41 PM PDT
Astronomical Twilight 2:27 AM PDT 11:59 PM PDT
Moon 4:14 AM PDT (7/6) 7:48 PM PDT (7/6)
Length of Visible Light 17h 07m
Length of Day
15h 47m
Waning Crescent, 2% of the Moon is Illuminated
Jul 6
Waning Crescent
Jul 8
New
Jul 15
First Quarter
Jul 22
Full
Jul 29
Last Quarter

Hourly Weather History & Observations

Time (PDT) Temp. Dew Point Humidity Pressure Visibility Wind Dir Wind Speed Gust Speed Precip Events Conditions
12:53 AM 60.1 °F 54.0 °F 80% 30.00 in 10.0 mi South 3.5 mph - N/A   Partly Cloudy
1:53 AM 59.0 °F 54.0 °F 83% 30.01 in 10.0 mi SSW 3.5 mph - N/A   Partly Cloudy
2:53 AM 57.9 °F 53.1 °F 84% 30.01 in 10.0 mi SSW 4.6 mph - N/A   Partly Cloudy
3:53 AM 57.0 °F 52.0 °F 83% 30.01 in 10.0 mi SSW 3.5 mph - N/A   Clear
4:25 AM 57.2 °F 51.8 °F 82% 29.99 in 10.0 mi Calm Calm - N/A   Scattered Clouds
4:48 AM 57.2 °F 53.6 °F 88% 29.99 in 7.0 mi SW 4.6 mph - N/A   Mostly Cloudy
4:53 AM 57.0 °F 53.1 °F 87% 30.01 in 5.0 mi Calm Calm - N/A   Mostly Cloudy
5:01 AM 57.2 °F 53.6 °F 88% 29.99 in 0.8 mi West 3.5 mph - N/A   Overcast
5:30 AM 55.4 °F 53.6 °F 94% 29.99 in 0.2 mi Calm Calm - N/A   Overcast
5:53 AM 55.9 °F 54.0 °F 93% 30.01 in 0.2 mi SSW 3.5 mph - N/A Fog Fog
6:53 AM 57.0 °F 54.0 °F 89% 30.01 in 0.8 mi SW 3.5 mph - N/A   Overcast
7:37 AM 57.2 °F 53.6 °F 88% 30.00 in 1.8 mi Calm Calm - N/A   Overcast
7:53 AM 57.9 °F 54.0 °F 87% 30.02 in 1.8 mi South 3.5 mph - N/A   Overcast
8:33 AM 59.0 °F 53.6 °F 82% 30.00 in 5.0 mi Calm Calm - N/A   Overcast
8:53 AM 59.0 °F 54.0 °F 83% 30.02 in 5.0 mi SSW 3.5 mph - N/A   Overcast
9:53 AM 60.1 °F 54.0 °F 80% 30.01 in 10.0 mi Calm Calm - N/A   Overcast
10:53 AM 66.9 °F 55.0 °F 66% 30.00 in 10.0 mi Calm Calm - N/A   Mostly Cloudy
11:53 AM 70.0 °F 55.0 °F 59% 29.99 in 10.0 mi WNW 5.8 mph - N/A   Mostly Cloudy
12:24 PM 71.6 °F 53.6 °F 53% 29.97 in 10.0 mi WSW 5.8 mph - N/A   Scattered Clouds
12:53 PM 71.1 °F 53.1 °F 53% 29.98 in 10.0 mi West 6.9 mph - N/A   Scattered Clouds
1:53 PM 75.0 °F 53.1 °F 46% 29.97 in 10.0 mi WNW 9.2 mph - N/A   Partly Cloudy
2:53 PM 75.9 °F 52.0 °F 43% 29.96 in 10.0 mi NW 8.1 mph - N/A   Partly Cloudy
3:53 PM 77.0 °F 50.0 °F 39% 29.94 in 10.0 mi NW 8.1 mph - N/A   Partly Cloudy
4:53 PM 79.0 °F 48.9 °F 35% 29.94 in 10.0 mi WNW 11.5 mph - N/A   Partly Cloudy
5:53 PM 79.0 °F 50.0 °F 36% 29.92 in 10.0 mi NW 9.2 mph - N/A   Partly Cloudy
6:53 PM 78.1 °F 50.0 °F 37% 29.91 in 10.0 mi NNW 8.1 mph - N/A   Partly Cloudy
7:53 PM 75.9 °F 51.1 °F 42% 29.91 in 10.0 mi WNW 8.1 mph - N/A   Partly Cloudy
8:53 PM 72.0 °F 52.0 °F 49% 29.92 in 10.0 mi NW 5.8 mph - N/A   Partly Cloudy
9:53 PM 70.0 °F 52.0 °F 53% 29.93 in 10.0 mi WNW 4.6 mph - N/A   Partly Cloudy
10:53 PM 69.1 °F 52.0 °F 54% 29.93 in 10.0 mi North 4.6 mph - N/A   Clear
11:53 PM 66.0 °F 52.0 °F 60% 29.93 in 10.0 mi Calm Calm - N/A   Scattered Clouds